Time,TemperatureF,DewpointF,PressureIn,WindDirection,WindDirectionDegrees,WindSpeedMPH,WindSpeedGustMPH,Humidity,HourlyPrecipIn,Conditions,Clouds,dailyrainin,SoftwareType,DateUTC
2013-06-20 00:05:00,62.4,62.1,30.05,NW,315,0.0,-999.0,99,-99.99,,,0.00,Acu-Link.com,2013-06-20 04:05:00,
2013-06-20 00:20:00,62.6,62.3,30.05,NW,315,0.0,-999.0,99,-99.99,,,0.00,Acu-Link.com,2013-06-20 04:20:00,
2013-06-20 00:35:00,62.4,62.1,30.05,West,270,0.0,-999.0,99,-99.99,,,0.00,Acu-Link.com,2013-06-20 04:35:00,
2013-06-20 00:51:00,62.2,61.9,30.04,SSW,202,0.0,-999.0,99,-99.99,,,0.00,Acu-Link.com,2013-06-20 04:51:00,
2013-06-20 01:06:00,62.1,61.8,30.04,South,180,0.0,-999.0,99,-99.99,,,0.00,Acu-Link.com,2013-06-20 05:06:00,
2013-06-20 01:22:00,62.2,61.9,30.04,South,180,1.7,-999.0,99,-99.99,,,0.00,Acu-Link.com,2013-06-20 05:22:00,
2013-06-20 01:37:00,62.1,61.8,30.05,WNW,292,0.0,-999.0,99,-99.99,,,0.00,Acu-Link.com,2013-06-20 05:37:00,
2013-06-20 01:52:00,61.9,61.6,30.04,East,90,0.0,-999.0,99,-99.99,,,0.00,Acu-Link.com,2013-06-20 05:52:00,
2013-06-20 02:08:00,61.9,61.6,30.05,SE,135,0.0,-999.0,99,-99.99,,,0.00,Acu-Link.com,2013-06-20 06:08:00,
2013-06-20 02:23:00,61.7,61.4,30.04,NW,315,0.0,-999.0,99,-99.99,,,0.00,Acu-Link.com,2013-06-20 06:23:00,
2013-06-20 02:38:00,61.5,61.2,30.04,NW,315,1.7,-999.0,99,-99.99,,,0.00,Acu-Link.com,2013-06-20 06:38:00,
2013-06-20 02:53:00,61.5,61.2,30.05,WNW,292,0.0,-999.0,99,-99.99,,,0.00,Acu-Link.com,2013-06-20 06:53:00,
2013-06-20 03:09:00,61.7,61.4,30.04,WNW,292,0.0,-999.0,99,-99.99,,,0.00,Acu-Link.com,2013-06-20 07:09:00,
2013-06-20 03:24:00,62.2,61.9,30.04,SSW,202,0.0,-999.0,99,-99.99,,,0.00,Acu-Link.com,2013-06-20 07:24:00,
2013-06-20 03:39:00,62.6,62.3,30.05,ESE,112,0.0,-999.0,99,-99.99,,,0.00,Acu-Link.com,2013-06-20 07:39:00,
2013-06-20 03:54:00,62.8,62.5,30.05,South,180,0.0,-999.0,99,-99.99,,,0.00,Acu-Link.com,2013-06-20 07:54:00,
2013-06-20 04:10:00,62.6,62.3,30.07,SSE,157,1.7,-999.0,99,-99.99,,,0.00,Acu-Link.com,2013-06-20 08:10:00,
2013-06-20 04:25:00,62.4,62.1,30.06,ESE,112,1.7,-999.0,99,-99.99,,,0.00,Acu-Link.com,2013-06-20 08:25:00,
2013-06-20 04:40:00,62.4,62.1,30.06,SSE,157,2.7,-999.0,99,-99.99,,,0.00,Acu-Link.com,2013-06-20 08:40:00,
2013-06-20 04:55:00,62.4,62.1,30.07,South,180,0.0,-999.0,99,-99.99,,,0.00,Acu-Link.com,2013-06-20 08:55:00,
2013-06-20 05:10:00,61.7,61.4,30.08,SE,135,0.0,-999.0,99,-99.99,,,0.00,Acu-Link.com,2013-06-20 09:10:00,
2013-06-20 05:25:00,61.7,61.4,30.07,SW,225,1.7,-999.0,99,-99.99,,,0.00,Acu-Link.com,2013-06-20 09:25:00,
2013-06-20 05:40:00,61.7,61.4,30.08,SSE,157,0.0,-999.0,99,-99.99,,,0.00,Acu-Link.com,2013-06-20 09:40:00,
2013-06-20 05:56:00,61.5,61.2,30.08,South,180,2.7,-999.0,99,-99.99,,,0.00,Acu-Link.com,2013-06-20 09:56:00,
2013-06-20 06:11:00,61.7,61.4,30.09,SW,225,0.0,-999.0,99,-99.99,,,0.00,Acu-Link.com,2013-06-20 10:11:00,
2013-06-20 06:26:00,62.1,61.8,30.09,SSE,157,3.2,-999.0,99,-99.99,,,0.00,Acu-Link.com,2013-06-20 10:26:00,
2013-06-20 06:41:00,62.4,62.1,30.10,SSE,157,2.7,-999.0,99,-99.99,,,0.00,Acu-Link.com,2013-06-20 10:41:00,
2013-06-20 06:57:00,62.8,62.5,30.11,ESE,112,1.7,-999.0,99,-99.99,,,0.00,Acu-Link.com,2013-06-20 10:57:00,
2013-06-20 07:12:00,63.0,62.7,30.12,SSE,157,2.7,-999.0,99,-99.99,,,0.00,Acu-Link.com,2013-06-20 11:12:00,
2013-06-20 07:27:00,63.0,62.7,30.10,SSE,157,2.7,-999.0,99,-99.99,,,0.00,Acu-Link.com,2013-06-20 11:27:00,
2013-06-20 07:43:00,63.1,62.8,30.11,ESE,112,0.0,-999.0,99,-99.99,,,0.00,Acu-Link.com,2013-06-20 11:43:00,
2013-06-20 07:58:00,63.5,63.2,30.12,SE,135,1.7,-999.0,99,-99.99,,,0.00,Acu-Link.com,2013-06-20 11:58:00,
2013-06-20 08:13:00,64.0,63.7,30.14,SE,135,0.0,-999.0,99,-99.99,,,0.00,Acu-Link.com,2013-06-20 12:13:00,
2013-06-20 08:29:00,64.9,64.6,30.13,SSE,157,0.0,-999.0,99,-99.99,,,0.00,Acu-Link.com,2013-06-20 12:29:00,
2013-06-20 08:44:00,65.3,65.0,30.14,SSE,157,2.2,-999.0,99,-99.99,,,0.00,Acu-Link.com,2013-06-20 12:44:00,
2013-06-20 08:59:00,66.4,66.1,30.14,SE,135,2.2,-999.0,99,-99.99,,,0.00,Acu-Link.com,2013-06-20 12:59:00,
2013-06-20 09:14:00,67.1,66.8,30.14,SSE,157,3.2,-999.0,99,-99.99,,,0.00,Acu-Link.com,2013-06-20 13:14:00,
2013-06-20 09:29:00,66.9,66.6,30.15,SE,135,2.7,-999.0,99,-99.99,,,0.00,Acu-Link.com,2013-06-20 13:29:00,
2013-06-20 09:44:00,66.9,66.6,30.15,SE,135,2.7,-999.0,99,-99.99,,,0.00,Acu-Link.com,2013-06-20 13:44:00,
2013-06-20 10:00:00,67.3,67.0,30.15,SE,135,2.2,-999.0,99,-99.99,,,0.00,Acu-Link.com,2013-06-20 14:00:00,
2013-06-20 10:15:00,68.4,68.1,30.15,SE,135,2.7,-999.0,99,-99.99,,,0.00,Acu-Link.com,2013-06-20 14:15:00,
2013-06-20 10:31:00,68.7,68.4,30.16,South,180,1.7,-999.0,99,-99.99,,,0.00,Acu-Link.com,2013-06-20 14:31:00,
2013-06-20 10:46:00,70.2,69.9,30.15,SW,225,3.7,-999.0,99,-99.99,,,0.00,Acu-Link.com,2013-06-20 14:46:00,
2013-06-20 11:01:00,71.2,70.9,30.14,SSE,157,5.3,-999.0,99,-99.99,,,0.00,Acu-Link.com,2013-06-20 15:01:00,
2013-06-20 11:17:00,72.0,71.7,30.15,SW,225,2.7,-999.0,99,-99.99,,,0.00,Acu-Link.com,2013-06-20 15:17:00,
2013-06-20 11:32:00,72.3,72.0,30.14,SSE,157,5.3,-999.0,99,-99.99,,,0.00,Acu-Link.com,2013-06-20 15:32:00,
2013-06-20 11:47:00,75.0,74.7,30.14,South,180,5.3,-999.0,99,-99.99,,,0.00,Acu-Link.com,2013-06-20 15:47:00,
2013-06-20 12:02:00,72.7,72.4,30.14,SE,135,3.2,-999.0,99,-99.99,,,0.00,Acu-Link.com,2013-06-20 16:02:00,
2013-06-20 12:17:00,72.1,71.8,30.14,ESE,112,4.2,-999.0,99,-99.99,,,0.00,Acu-Link.com,2013-06-20 16:17:00,
2013-06-20 12:33:00,73.6,73.3,30.14,South,180,3.7,-999.0,99,-99.99,,,0.00,Acu-Link.com,2013-06-20 16:33:00,
2013-06-20 12:48:00,75.6,75.3,30.15,SSE,157,3.2,-999.0,99,-99.99,,,0.00,Acu-Link.com,2013-06-20 16:48:00,
2013-06-20 13:03:00,75.7,75.4,30.15,SSE,157,6.3,-999.0,99,-99.99,,,0.00,Acu-Link.com,2013-06-20 17:03:00,
2013-06-20 13:18:00,77.2,76.9,30.14,SSE,157,4.7,-999.0,99,-99.99,,,0.00,Acu-Link.com,2013-06-20 17:18:00,
2013-06-20 13:34:00,77.7,77.4,30.13,SE,135,5.3,-999.0,99,-99.99,,,0.00,Acu-Link.com,2013-06-20 17:34:00,
2013-06-20 13:49:00,76.5,76.2,30.12,ESE,112,1.7,-999.0,99,-99.99,,,0.00,Acu-Link.com,2013-06-20 17:49:00,
2013-06-20 14:04:00,80.8,80.5,30.12,SSE,157,4.7,-999.0,99,-99.99,,,0.00,Acu-Link.com,2013-06-20 18:04:00,
2013-06-20 14:19:00,73.4,73.1,30.12,SSE,157,4.2,-999.0,99,-99.99,,,0.00,Acu-Link.com,2013-06-20 18:19:00,
2013-06-20 14:34:00,78.3,78.0,30.12,South,180,5.8,-999.0,99,-99.99,,,0.00,Acu-Link.com,2013-06-20 18:34:00,
2013-06-20 14:49:00,77.5,77.2,30.11,SE,135,4.2,-999.0,99,-99.99,,,0.00,Acu-Link.com,2013-06-20 18:49:00,
2013-06-20 15:04:00,76.3,76.0,30.10,ESE,112,3.2,-999.0,99,-99.99,,,0.00,Acu-Link.com,2013-06-20 19:04:00,
2013-06-20 15:20:00,73.0,72.7,30.11,ESE,112,3.2,-999.0,99,-99.99,,,0.00,Acu-Link.com,2013-06-20 19:20:00,
2013-06-20 15:35:00,77.7,77.4,30.10,SE,135,5.3,-999.0,99,-99.99,,,0.00,Acu-Link.com,2013-06-20 19:35:00,
2013-06-20 15:50:00,73.8,73.5,30.09,ESE,112,3.7,-999.0,99,-99.99,,,0.00,Acu-Link.com,2013-06-20 19:50:00,
2013-06-20 16:05:00,75.0,74.7,30.09,SE,135,2.2,-999.0,99,-99.99,,,0.00,Acu-Link.com,2013-06-20 20:05:00,
2013-06-20 16:20:00,74.8,74.5,30.09,South,180,3.7,-999.0,99,-99.99,,,0.00,Acu-Link.com,2013-06-20 20:20:00,
2013-06-20 16:35:00,76.3,76.0,30.10,South,180,5.8,-999.0,99,-99.99,,,0.00,Acu-Link.com,2013-06-20 20:35:00,
2013-06-20 16:50:00,76.5,76.2,30.09,ESE,112,3.2,-999.0,99,-99.99,,,0.00,Acu-Link.com,2013-06-20 20:50:00,
2013-06-20 17:05:00,77.5,77.2,30.09,SSE,157,0.0,-999.0,99,-99.99,,,0.00,Acu-Link.com,2013-06-20 21:05:00,
2013-06-20 17:21:00,76.1,75.8,30.10,SE,135,4.7,-999.0,99,-99.99,,,0.00,Acu-Link.com,2013-06-20 21:21:00,
2013-06-20 17:36:00,75.7,75.4,30.08,SSE,157,2.7,-999.0,99,-99.99,,,0.00,Acu-Link.com,2013-06-20 21:36:00,
2013-06-20 17:51:00,76.6,76.3,30.08,South,180,6.3,-999.0,99,-99.99,,,0.00,Acu-Link.com,2013-06-20 21:51:00,
2013-06-20 18:06:00,76.1,75.8,30.08,SE,135,4.7,-999.0,99,-99.99,,,0.00,Acu-Link.com,2013-06-20 22:06:00,
2013-06-20 18:21:00,77.7,77.4,30.08,SW,225,2.7,-999.0,99,-99.99,,,0.00,Acu-Link.com,2013-06-20 22:21:00,
2013-06-20 18:37:00,77.7,77.4,30.08,SE,135,3.2,-999.0,99,-99.99,,,0.00,Acu-Link.com,2013-06-20 22:37:00,
2013-06-20 18:52:00,75.7,75.4,30.10,South,180,2.2,-999.0,99,-99.99,,,0.00,Acu-Link.com,2013-06-20 22:52:00,
2013-06-20 19:07:00,75.2,74.9,30.10,SE,135,2.2,-999.0,99,-99.99,,,0.00,Acu-Link.com,2013-06-20 23:07:00,
2013-06-20 19:23:00,74.3,74.0,30.09,SSE,157,2.7,-999.0,99,-99.99,,,0.00,Acu-Link.com,2013-06-20 23:23:00,
2013-06-20 19:38:00,71.1,70.8,30.09,SE,135,2.2,-999.0,99,-99.99,,,0.00,Acu-Link.com,2013-06-20 23:38:00,
2013-06-20 19:53:00,69.4,69.1,30.10,SSE,157,2.2,-999.0,99,-99.99,,,0.00,Acu-Link.com,2013-06-20 23:53:00,
2013-06-20 20:09:00,68.4,68.1,30.11,SSE,157,0.0,-999.0,99,-99.99,,,0.00,Acu-Link.com,2013-06-21 00:09:00,
2013-06-20 20:24:00,67.1,66.8,30.12,South,180,2.2,-999.0,99,-99.99,,,0.00,Acu-Link.com,2013-06-21 00:24:00,
2013-06-20 20:39:00,66.2,65.9,30.11,SSE,157,0.0,-999.0,99,-99.99,,,0.00,Acu-Link.com,2013-06-21 00:39:00,
2013-06-20 20:55:00,65.5,65.2,30.12,SSE,157,0.0,-999.0,99,-99.99,,,0.00,Acu-Link.com,2013-06-21 00:55:00,
2013-06-20 21:10:00,64.8,64.5,30.12,South,180,0.0,-999.0,99,-99.99,,,0.00,Acu-Link.com,2013-06-21 01:10:00,
2013-06-20 21:25:00,64.4,64.1,30.13,SSW,202,0.0,-999.0,99,-99.99,,,0.00,Acu-Link.com,2013-06-21 01:25:00,
2013-06-20 21:40:00,64.2,63.9,30.13,SSW,202,0.0,-999.0,99,-99.99,,,0.00,Acu-Link.com,2013-06-21 01:40:00,
2013-06-20 21:56:00,64.0,63.7,30.15,SW,225,0.0,-999.0,99,-99.99,,,0.00,Acu-Link.com,2013-06-21 01:56:00,
2013-06-20 22:11:00,64.0,63.7,30.15,South,180,0.0,-999.0,99,-99.99,,,0.00,Acu-Link.com,2013-06-21 02:11:00,
2013-06-20 22:26:00,64.0,63.7,30.15,SSE,157,0.0,-999.0,99,-99.99,,,0.00,Acu-Link.com,2013-06-21 02:26:00,
2013-06-20 22:42:00,63.9,63.6,30.15,SSE,157,0.0,-999.0,99,-99.99,,,0.00,Acu-Link.com,2013-06-21 02:42:00,
2013-06-20 22:57:00,63.5,63.2,30.15,SSE,157,0.0,-999.0,99,-99.99,,,0.00,Acu-Link.com,2013-06-21 02:57:00,
2013-06-20 23:12:00,63.3,63.0,30.15,SW,225,0.0,-999.0,99,-99.99,,,0.00,Acu-Link.com,2013-06-21 03:12:00,
2013-06-20 23:27:00,63.3,63.0,30.15,South,180,0.0,-999.0,99,-99.99,,,0.00,Acu-Link.com,2013-06-21 03:27:00,
2013-06-20 23:43:00,63.3,63.0,30.16,South,180,0.0,-999.0,99,-99.99,,,0.00,Acu-Link.com,2013-06-21 03:43:00,
2013-06-20 23:58:00,63.3,63.0,30.16,South,180,0.0,-999.0,99,-99.99,,,0.00,Acu-Link.com,2013-06-21 03:58:00,